Voltar ao catálogo

STARLINK-3841

AtivoComunicaçõesVLEO
NORAD 52369·PAYLOAD·🇺🇸 United States

Lançado Apr 29, 2022 de Cape Canaveral Space Force Station

Loading…

Próximas Passagens (próximas 24 horas)

TLE

AtualizadoSource: CelesTrak SupGP

Época: Sep 15, 2026, 02:33 UTC

1 52369C 22045AQ  26258.10673611 -.00037800  00000+0 -10811-2 0  2586
2 52369  53.1592  50.6422 0001054  92.3904 249.6131 15.35428443    14

Acompanhe STARLINK-3841 em tempo real com AllMySat

Download on the App Store